Temp
71 67 63 63 55 49 44 48 49 51 52 56 59 59 60 55 58 52 69 73 72 71 74 75 77 77 77 77 77 76 76 76 77 77 77 77 78 78 78 78 78 78 78 77 77 76 76 75 75
65 67 62 55 48 43 46 49 51 54 56 58 59 58 56 54 62 65 65 73 72 72 74 74 77 77 77 77 77 77 77 76 76 76 77 77 78 78 77 78 78 78 77 77 76 75 75 74 74
65 66 59 52 44 44 47 51 52 55 58 58 56 59 57 57 63 62 64 70 71 71 75 74 76 77 77 77 77 76 76 76 77 77 77 77 77 77 77 77 77 77 76 76 76 75 74 74 74
61 60 56 48 45 50 51 50 53 56 57 60 57 54 58 62 60 63 68 69 69 70 72 74 76 77 77 77 77 77 77 77 77 76 77 77 77 77 77 76 76 76 75 75 75 75 74 74 74
57 54 46 43 46 49 51 55 56 55 54 55 57 52 54 61 63 68 69 69 68 68 71 73 76 76 76 76 76 76 76 76 76 76 77 77 77 77 76 75 75 75 75 75 75 76 75 74 74
52 51 42 40 45 50 51 57 57 54 55 55 56 55 56 61 63 68 67 67 68 68 71 69 71 73 74 75 75 75 75 75 75 75 75 75 75 75 75 75 75 75 75 75 75 75 75 75 74
50 46 41 43 47 48 53 58 55 55 55 54 58 53 57 61 68 69 68 67 68 69 69 68 66 68 70 71 72 72 73 73 73 73 73 72 72 73 74 74 74 75 75 75 74 75 75 75 75
51 47 40 41 46 47 54 56 57 57 53 57 57 53 55 60 65 68 67 68 67 67 66 67 66 65 62 62 68 69 69 69 69 69 68 67 68 69 70 70 71 73 73 74 74 74 74 74 73
52 43 39 44 47 50 54 55 57 57 55 55 55 56 59 63 63 62 61 62 61 62 60 61 60 60 61 62 63 63 65 65 65 63 64 61 59 60 63 65 67 70 71 72 72 73 72 72 71
48 42 44 48 50 51 55 56 56 56 53 51 53 58 60 62 61 59 59 58 58 58 58 58 58 58 59 65 57 56 59 55 56 56 56 55 55 56 61 59 64 65 67 68 70 70 69 68 69
45 44 47 48 51 55 54 53 54 55 51 54 54 55 58 58 58 58 57 57 57 56 58 58 57 56 55 55 53 52 53 52 53 54 54 54 55 53 53 51 52 54 59 57 60 61 62 63 65
47 48 48 50 52 54 54 55 52 51 51 54 56 57 57 57 57 57 57 57 56 55 56 56 55 55 53 52 52 51 52 52 52 53 54 52 51 52 52 51 51 51 51 52 52 53 55 58 60
45 44 48 49 51 51 55 51 52 50 52 56 58 59 58 57 57 56 57 56 56 54 54 55 54 53 54 53 51 51 51 51 51 52 53 53 51 51 51 51 50 50 51 51 51 52 53 54 56
46 48 45 49 50 50 51 49 51 50 53 54 56 56 56 57 57 54 55 55 55 55 53 55 55 53 53 52 51 50 50 51 51 51 52 54 52 51 52 51 51 51 50 51 50 51 51 52 53
48 46 45 47 48 48 49 48 47 51 54 53 54 54 54 55 55 56 56 55 55 54 53 55 55 54 53 52 51 50 50 52 50 51 51 52 53 52 51 51 51 51 51 51 51 51 51 51 52
45 42 38 45 46 48 49 40 49 50 52 51 51 50 53 54 55 55 54 54 53 52 54 52 58 53 53 51 51 51 51 49 49 49 49 51 52 52 50 50 50 51 51 51 49 49 49 49 49
37 33 33 39 45 44 46 41 47 49 50 49 48 48 51 52 54 54 54 53 53 52 53 53 53 52 52 51 51 50 50 49 48 48 48 49 51 52 50 50 50 50 50 50 50 50 48 48 49
33 32 33 32 41 44 40 40 45 48 48 48 47 47 47 49 52 54 54 53 52 51 51 51 52 52 51 50 49 48 48 48 48 48 49 50 50 51 50 50 49 50 50 49 49 49 50 49 48
38 36 34 34 41 37 36 38 45 47 45 45 46 45 46 48 49 52 52 51 50 49 50 51 51 51 50 48 46 45 44 45 46 48 49 50 50 51 49 49 49 49 49 48 49 49 48 48 49
38 36 31 35 41 38 36 41 44 44 45 46 46 46 46 45 45 50 48 48 49 50 50 50 51 51 50 48 46 45 44 45 45 47 49 50 50 50 51 48 48 48 48 49 49 48 47 47 49
32 33 32 34 36 36 32 39 40 43 43 45 46 45 44 45 46 47 48 47 47 48 49 51 51 50 50 49 46 46 45 45 45 46 47 49 50 50 49 49 49 48 48 48 48 48 48 46 47
33 35 36 36 28 26 31 27 35 37 42 44 45 43 43 44 44 45 46 46 48 49 48 49 50 50 50 48 46 44 43 43 44 45 47 49 49 49 50 50 49 49 49 49 49 52 48 46 45
34 37 34 32 22 23 30 23 34 35 38 40 43 44 44 44 44 46 46 49 50 50 48 48 48 48 49 47 46 44 43 44 44 46 50 50 49 49 50 50 49 49 50 50 50 49 47 47 46
38 36 33 28 20 19 21 21 26 33 35 40 42 44 46 46 46 46 46 48 49 49 48 47 47 48 48 47 46 45 44 44 44 45 47 53 54 51 49 50 49 49 50 50 54 48 47 47 47
36 30 15 20 17 20 15 18 30 37 40 40 42 44 45 45 45 45 46 48 49 49 49 48 47 47 47 46 45 45 45 44 44 45 46 51 53 53 53 50 49 49 50 51 53 48 47 47 46
31 28 20 18 15 20 25 22 31 40 41 42 43 43 44 44 45 45 47 47 47 49 48 48 47 47 46 46 45 44 45 45 45 45 46 52 52 53 49 51 54 50 49 50 50 50 47 47 46
32 23 32 21 17 17 21 30 38 40 40 41 42 43 43 44 44 45 47 47 48 48 49 48 47 46 46 45 44 44 44 44 44 45 46 46 47 49 49 49 50 49 49 49 49 51 50 46 46
34 35 27 21 17 17 20 20 25 32 36 40 41 41 43 44 44 45 46 47 48 48 48 47 47 46 46 45 44 44 43 44 44 44 44 45 46 47 47 47 47 48 48 49 50 51 52 50 45
30 27 29 27 24 18 16 23 31 30 38 38 37 41 42 42 43 44 45 46 46 46 46 46 45 45 45 44 44 43 43 44 44 44 44 45 46 47 47 47 47 47 47 47 47 49 51 50 49
32 29 30 24 22 17 15 22 36 37 38 39 41 42 42 43 43 43 44 44 45 45 45 45 45 44 45 44 44 43 43 43 43 44 45 47 46 47 47 47 46 46 46 46 45 45 46 47 49
MSLP
1013.65 1013.80 1014.01 1014.05 1015.59 1016.45 1016.19 1015.77 1015.30 1015.18 1015.54 1015.67 1015.68 1015.97 1016.44 1017.11 1017.12 1018.02 1017.54 1017.41 1017.24 1017.51 1017.64 1017.77 1017.86 1018.03 1018.19 1018.24 1018.34 1018.34 1018.32 1018.41 1018.41 1018.41 1018.31 1018.20 1018.24 1018.25 1018.18 1018.20 1018.23 1018.30 1018.38 1018.41 1018.43 1018.48 1018.53 1018.61 1018.66
1013.86 1014.06 1014.22 1015.06 1016.09 1016.86 1016.42 1015.77 1015.43 1015.36 1015.87 1016.01 1016.15 1016.63 1017.04 1017.68 1017.37 1017.55 1017.60 1017.45 1017.25 1017.41 1017.60 1017.85 1017.98 1018.12 1018.22 1018.29 1018.38 1018.40 1018.36 1018.44 1018.53 1018.52 1018.45 1018.42 1018.30 1018.24 1018.29 1018.26 1018.29 1018.35 1018.44 1018.53 1018.57 1018.65 1018.69 1018.72 1018.77
1014.03 1014.14 1014.99 1015.68 1016.48 1016.67 1016.17 1015.49 1015.31 1015.64 1015.94 1016.21 1016.79 1017.31 1017.66 1017.96 1017.68 1017.73 1017.59 1017.47 1017.40 1017.43 1017.54 1017.85 1018.00 1018.12 1018.18 1018.29 1018.38 1018.42 1018.46 1018.45 1018.55 1018.55 1018.53 1018.54 1018.44 1018.36 1018.27 1018.28 1018.29 1018.39 1018.47 1018.54 1018.58 1018.65 1018.70 1018.73 1018.78
1014.43 1014.78 1015.73 1015.74 1016.40 1016.03 1015.64 1015.34 1015.43 1015.99 1016.28 1016.48 1017.00 1017.86 1018.16 1018.17 1017.83 1017.90 1017.69 1017.52 1017.59 1017.62 1017.67 1017.93 1018.10 1018.21 1018.29 1018.36 1018.48 1018.52 1018.53 1018.58 1018.54 1018.55 1018.55 1018.53 1018.53 1018.47 1018.41 1018.29 1018.24 1018.34 1018.43 1018.49 1018.51 1018.54 1018.62 1018.70 1018.71
1014.76 1015.29 1016.23 1016.57 1016.27 1015.80 1015.42 1015.28 1015.58 1016.04 1016.46 1016.83 1017.14 1017.90 1018.24 1018.12 1017.91 1017.95 1017.91 1017.75 1017.78 1018.01 1017.98 1018.17 1018.32 1018.45 1018.50 1018.54 1018.60 1018.64 1018.63 1018.62 1018.63 1018.59 1018.54 1018.53 1018.52 1018.50 1018.45 1018.35 1018.29 1018.33 1018.40 1018.43 1018.44 1018.45 1018.50 1018.57 1018.63
1015.42 1015.71 1016.63 1016.82 1016.22 1015.67 1015.35 1015.34 1015.69 1016.30 1016.56 1017.05 1017.35 1017.67 1018.23 1018.13 1018.15 1018.16 1018.19 1018.19 1018.06 1018.27 1018.38 1018.65 1018.82 1018.91 1018.91 1018.87 1018.92 1018.95 1018.86 1018.78 1018.76 1018.74 1018.65 1018.62 1018.58 1018.54 1018.49 1018.43 1018.38 1018.33 1018.28 1018.31 1018.34 1018.33 1018.34 1018.38 1018.40
1015.47 1016.11 1016.56 1016.52 1016.21 1015.80 1015.48 1015.53 1015.99 1016.51 1016.78 1017.34 1017.46 1018.16 1018.43 1018.32 1018.27 1018.43 1018.44 1018.35 1018.52 1018.63 1018.73 1019.14 1019.27 1019.28 1019.35 1019.32 1019.24 1019.28 1019.28 1019.16 1019.03 1019.01 1018.92 1018.81 1018.70 1018.62 1018.54 1018.50 1018.43 1018.31 1018.20 1018.14 1018.17 1018.15 1018.11 1018.09 1018.09
1015.27 1016.17 1017.09 1016.61 1016.28 1015.97 1015.58 1015.73 1016.21 1016.51 1017.16 1017.61 1017.55 1017.98 1018.33 1018.15 1018.45 1018.69 1018.75 1018.88 1018.96 1019.16 1019.26 1019.59 1019.61 1019.78 1019.91 1019.84 1019.69 1019.63 1019.63 1019.58 1019.48 1019.40 1019.34 1019.18 1019.00 1018.87 1018.74 1018.62 1018.50 1018.22 1018.07 1017.94 1017.84 1017.84 1017.81 1017.76 1017.75
1015.08 1016.34 1017.20 1016.66 1016.12 1015.86 1015.58 1015.77 1016.44 1016.76 1017.21 1017.66 1017.74 1017.79 1017.65 1018.12 1018.69 1019.07 1019.19 1019.30 1019.47 1019.59 1019.82 1020.17 1020.15 1020.19 1020.16 1020.05 1020.12 1019.97 1019.89 1019.89 1019.84 1019.74 1019.61 1019.51 1019.46 1019.34 1019.13 1018.97 1018.70 1018.41 1018.25 1018.03 1017.81 1017.60 1017.54 1017.42 1017.48
1015.32 1016.52 1016.69 1015.92 1015.46 1015.47 1015.53 1015.60 1016.30 1017.07 1017.50 1017.89 1018.06 1017.96 1018.12 1018.43 1018.97 1019.32 1019.51 1019.67 1019.89 1020.06 1020.34 1020.47 1020.46 1020.51 1020.44 1020.23 1020.46 1020.39 1020.28 1020.32 1020.22 1020.11 1019.96 1019.83 1019.72 1019.61 1019.44 1019.27 1018.97 1018.73 1018.53 1018.26 1017.87 1017.74 1017.63 1017.45 1017.29
1015.62 1016.40 1016.51 1016.08 1015.53 1015.26 1015.57 1016.13 1016.49 1016.80 1017.64 1017.70 1017.82 1018.17 1018.61 1019.05 1019.41 1019.62 1019.82 1019.87 1019.93 1020.17 1020.44 1020.66 1020.68 1020.74 1020.80 1020.80 1020.81 1020.73 1020.68 1020.70 1020.54 1020.36 1020.17 1020.01 1019.84 1019.72 1019.56 1019.45 1019.29 1019.04 1018.79 1018.62 1018.36 1018.13 1017.89 1017.71 1017.51
1015.79 1016.63 1016.68 1016.30 1015.77 1015.63 1015.79 1016.24 1016.67 1016.99 1017.37 1017.43 1017.75 1018.36 1018.80 1019.35 1019.61 1019.86 1019.99 1019.93 1020.04 1020.28 1020.51 1020.74 1020.90 1020.95 1021.01 1021.05 1021.08 1021.01 1020.95 1020.92 1020.82 1020.63 1020.36 1020.22 1020.08 1019.91 1019.80 1019.69 1019.51 1019.36 1019.15 1018.94 1018.73 1018.55 1018.25 1017.92 1017.67
1016.24 1016.98 1017.04 1016.77 1016.39 1016.25 1016.01 1016.54 1016.87 1017.38 1017.61 1017.66 1018.09 1018.61 1019.09 1019.45 1019.69 1019.91 1019.98 1020.02 1020.11 1020.41 1020.55 1020.83 1020.97 1021.07 1021.06 1021.12 1021.22 1021.14 1021.13 1021.09 1020.98 1020.79 1020.57 1020.36 1020.31 1020.21 1020.00 1019.83 1019.64 1019.47 1019.25 1019.07 1018.89 1018.68 1018.41 1018.14 1017.84
1016.67 1017.20 1017.51 1017.32 1017.00 1016.88 1016.52 1016.97 1016.92 1017.68 1017.87 1018.31 1018.51 1018.91 1019.30 1019.45 1019.65 1020.00 1020.09 1020.11 1020.28 1020.45 1020.59 1020.85 1021.03 1021.08 1021.12 1021.24 1021.25 1021.27 1021.19 1021.11 1020.98 1020.88 1020.69 1020.46 1020.38 1020.28 1020.04 1019.88 1019.67 1019.46 1019.29 1019.07 1018.86 1018.69 1018.46 1018.22 1017.97
1017.04 1017.76 1017.81 1017.99 1017.50 1017.34 1017.06 1017.48 1017.50 1017.76 1018.19 1018.73 1019.11 1019.04 1019.57 1019.65 1019.75 1019.85 1019.80 1020.11 1020.41 1020.60 1020.72 1020.85 1020.90 1021.04 1021.19 1021.30 1021.29 1021.26 1021.20 1021.11 1021.09 1020.95 1020.74 1020.49 1020.31 1020.17 1020.03 1019.88 1019.68 1019.50 1019.23 1019.02 1018.80 1018.56 1018.35 1018.22 1017.92
1017.72 1018.25 1018.70 1018.58 1018.12 1017.55 1017.25 1017.69 1017.76 1018.16 1018.46 1019.05 1019.34 1019.47 1019.74 1019.72 1019.74 1019.79 1019.93 1020.22 1020.46 1020.62 1020.81 1020.85 1020.77 1020.93 1021.20 1021.31 1021.30 1021.24 1021.17 1021.19 1021.12 1020.95 1020.74 1020.49 1020.26 1020.06 1019.93 1019.80 1019.65 1019.44 1019.22 1018.97 1018.82 1018.65 1018.39 1018.19 1017.97
1019.12 1019.41 1019.48 1019.08 1018.72 1018.20 1017.75 1017.99 1018.08 1018.45 1018.99 1019.44 1019.64 1019.91 1019.93 1019.89 1019.88 1019.86 1019.93 1020.17 1020.43 1020.55 1020.67 1020.82 1020.86 1021.04 1021.25 1021.27 1021.23 1021.21 1021.20 1021.21 1021.14 1020.94 1020.71 1020.44 1020.23 1020.02 1019.90 1019.76 1019.56 1019.37 1019.18 1018.96 1018.83 1018.58 1018.49 1018.28 1017.92
1019.68 1020.21 1020.27 1019.88 1019.66 1019.05 1018.60 1018.47 1018.47 1018.68 1019.31 1019.75 1020.03 1020.16 1020.30 1020.14 1019.80 1019.83 1019.80 1020.05 1020.23 1020.40 1020.59 1020.75 1020.92 1021.07 1021.20 1021.29 1021.32 1021.30 1021.28 1021.18 1021.09 1020.92 1020.69 1020.35 1020.16 1019.92 1019.76 1019.64 1019.49 1019.27 1019.12 1018.97 1018.81 1018.60 1018.36 1018.19 1017.90
1019.51 1020.19 1020.87 1020.80 1020.39 1020.07 1019.82 1019.30 1018.77 1018.82 1019.30 1019.83 1020.20 1020.22 1020.27 1020.00 1019.71 1019.67 1019.66 1019.86 1020.18 1020.48 1020.69 1020.76 1020.93 1021.05 1021.19 1021.30 1021.53 1021.57 1021.67 1021.39 1021.17 1020.85 1020.57 1020.35 1020.18 1019.95 1019.74 1019.63 1019.41 1019.20 1019.14 1019.00 1018.80 1018.56 1018.40 1018.19 1017.84
1020.27 1020.74 1021.65 1021.57 1021.11 1020.77 1020.78 1019.88 1018.99 1018.98 1019.01 1019.34 1019.80 1020.08 1020.20 1020.08 1019.85 1019.68 1019.70 1019.96 1020.21 1020.51 1020.71 1020.80 1020.88 1021.03 1021.12 1021.21 1021.38 1021.54 1021.55 1021.40 1021.29 1020.92 1020.57 1020.29 1020.17 1019.92 1019.65 1019.63 1019.46 1019.20 1019.09 1018.93 1018.80 1018.65 1018.62 1018.36 1017.98
1021.84 1021.85 1022.10 1022.21 1022.30 1022.41 1022.06 1020.99 1019.55 1019.22 1019.18 1019.24 1019.45 1019.67 1019.79 1019.80 1019.70 1019.66 1019.76 1020.08 1020.34 1020.51 1020.66 1020.71 1020.73 1020.84 1020.99 1021.08 1021.23 1021.33 1021.36 1021.24 1021.18 1020.99 1020.53 1020.21 1020.08 1019.85 1019.70 1019.53 1019.34 1019.16 1019.03 1018.92 1018.84 1018.61 1018.59 1018.60 1018.21
1022.42 1022.61 1022.70 1023.25 1024.02 1024.31 1024.05 1022.84 1020.82 1020.06 1019.61 1019.55 1019.84 1019.82 1019.85 1019.73 1019.66 1019.70 1019.77 1020.00 1020.21 1020.26 1020.46 1020.54 1020.62 1020.65 1020.80 1020.87 1021.08 1021.36 1021.45 1021.54 1021.23 1020.96 1020.48 1020.11 1019.90 1019.80 1019.68 1019.51 1019.25 1019.05 1018.85 1018.64 1018.55 1018.42 1018.42 1018.48 1018.48
1023.07 1023.14 1023.75 1024.61 1025.49 1025.96 1025.80 1024.82 1021.72 1020.77 1020.26 1020.05 1020.09 1020.11 1019.99 1019.83 1019.78 1019.71 1019.80 1019.93 1020.04 1020.25 1020.30 1020.40 1020.45 1020.42 1020.60 1020.75 1020.98 1021.14 1021.24 1021.15 1020.93 1020.70 1020.28 1019.98 1019.75 1019.68 1019.52 1019.36 1019.21 1018.87 1018.50 1018.44 1018.33 1018.32 1018.27 1018.24 1018.28
1023.26 1023.73 1024.67 1025.72 1026.70 1028.00 1028.09 1026.83 1023.18 1021.70 1020.92 1020.48 1020.33 1020.31 1020.23 1020.09 1020.08 1020.00 1019.97 1020.03 1020.10 1020.18 1020.12 1020.25 1020.34 1020.24 1020.38 1020.57 1020.66 1020.75 1020.86 1020.89 1020.88 1020.57 1020.26 1019.80 1019.62 1019.41 1019.33 1019.30 1019.14 1018.84 1018.49 1018.39 1018.05 1018.00 1018.12 1018.12 1018.10
1023.62 1024.74 1026.34 1027.68 1028.43 1029.10 1028.99 1027.52 1023.45 1021.60 1021.03 1020.79 1020.86 1020.78 1020.60 1020.45 1020.41 1020.41 1020.29 1020.22 1020.20 1020.16 1020.04 1020.17 1020.14 1019.99 1020.11 1020.33 1020.40 1020.39 1020.42 1020.52 1020.57 1020.38 1020.16 1019.72 1019.43 1019.19 1019.02 1018.89 1018.92 1018.89 1018.45 1018.17 1017.80 1017.87 1017.96 1017.97 1017.98
1024.60 1025.27 1026.50 1028.11 1029.55 1029.49 1028.59 1026.28 1022.67 1021.58 1021.10 1020.93 1021.07 1021.13 1021.10 1020.97 1020.89 1020.79 1020.53 1020.35 1020.16 1019.95 1019.78 1019.88 1019.84 1019.64 1019.79 1019.92 1019.95 1020.06 1020.09 1020.08 1020.08 1020.02 1019.87 1019.53 1019.29 1019.14 1018.93 1018.84 1018.51 1018.41 1018.36 1018.05 1017.86 1017.81 1017.76 1017.79 1017.73
1024.77 1025.51 1026.23 1027.83 1029.98 1029.53 1027.69 1025.27 1022.87 1021.67 1021.37 1021.37 1021.50 1021.37 1021.45 1021.37 1021.14 1020.90 1020.43 1020.17 1019.94 1019.68 1019.55 1019.62 1019.55 1019.40 1019.43 1019.51 1019.61 1019.66 1019.77 1019.77 1019.67 1019.57 1019.62 1019.39 1019.07 1018.86 1018.68 1018.65 1018.72 1018.33 1018.11 1017.92 1017.94 1017.73 1017.58 1017.58 1017.50
1024.52 1025.39 1026.19 1027.33 1029.27 1029.52 1027.74 1025.95 1023.44 1022.46 1021.96 1021.73 1021.71 1021.66 1021.54 1021.44 1021.18 1020.88 1020.52 1020.09 1019.60 1019.40 1019.33 1019.35 1019.23 1019.14 1018.99 1019.06 1019.09 1019.10 1019.08 1019.17 1019.21 1019.21 1019.06 1018.94 1018.79 1018.72 1018.53 1018.47 1018.46 1018.27 1018.00 1017.78 1017.83 1017.59 1017.37 1017.38 1017.34
1025.07 1025.48 1026.33 1027.24 1028.37 1029.10 1028.19 1025.84 1023.02 1022.54 1022.15 1021.99 1021.93 1021.99 1022.04 1021.90 1021.39 1020.88 1020.29 1019.86 1019.55 1019.34 1019.23 1019.03 1018.82 1018.79 1018.73 1018.68 1018.57 1018.63 1018.60 1018.50 1018.58 1018.71 1018.66 1018.52 1018.35 1018.41 1018.28 1018.23 1018.10 1018.03 1017.92 1017.81 1017.82 1017.60 1017.36 1017.23 1017.03
1024.90 1025.37 1025.95 1027.18 1028.65 1029.06 1028.29 1024.75 1022.73 1022.48 1022.27 1022.11 1022.11 1021.80 1021.37 1021.00 1020.93 1020.77 1020.40 1020.05 1019.67 1019.44 1019.11 1018.85 1018.53 1018.42 1018.22 1018.12 1018.25 1018.12 1018.15 1018.13 1018.23 1018.16 1017.97 1017.95 1018.01 1018.04 1017.97 1017.86 1017.77 1017.77 1017.82 1017.78 1017.75 1017.58 1017.44 1017.23 1016.83
Wind_Speed
6 4 1 5 5 5 2 3 1 1 1 2 2 2 6 4 3 4 2 2 4 5 5 4 7 8 8 8 7 6 6 5 5 5 7 8 1 3 6 4 3 4 4 5 4 5 5 5 5
1 1 4 3 6 3 4 3 3 3 4 5 5 3 6 3 2 4 4 1 7 6 5 5 7 7 7 6 5 5 4 3 3 4 7 9 8 3 2 1 2 2 3 3 4 3 3 3 3
1 2 4 5 4 5 5 4 3 3 6 2 4 5 2 2 2 2 2 3 5 4 6 5 7 7 6 5 3 2 2 2 3 4 5 7 8 8 4 3 3 3 3 2 2 2 1 0 2
1 3 5 5 5 4 5 2 3 5 2 4 3 7 1 3 2 2 4 5 6 5 6 6 5 4 4 3 2 3 2 2 3 4 5 5 7 7 8 8 2 3 3 3 3 4 3 3 3
3 2 5 4 4 2 3 2 5 3 3 2 1 4 2 1 2 3 2 5 7 6 5 5 6 5 7 8 8 8 8 6 5 5 5 6 7 7 8 9 3 3 4 5 5 6 6 5 5
3 3 4 6 4 2 2 5 4 2 2 1 4 3 3 1 2 1 4 6 6 7 7 7 10 11 12 12 12 11 11 10 9 9 9 8 7 7 8 9 8 6 6 7 7 8 9 9 8
6 5 6 7 7 3 4 4 6 4 4 0 6 4 1 1 2 1 5 6 7 7 8 7 7 8 11 13 13 12 12 11 11 11 12 11 9 8 8 9 9 9 10 9 9 10 11 11 11
5 6 5 4 7 5 5 4 4 4 2 1 1 5 5 4 6 5 6 7 8 7 8 6 6 6 6 6 12 12 13 13 13 13 13 12 11 11 11 11 10 10 11 11 11 11 13 13 12
4 6 5 8 8 7 5 6 2 2 5 1 1 2 1 10 8 5 5 4 5 5 7 6 6 6 5 5 7 9 11 12 12 11 13 8 5 6 8 10 13 14 14 14 12 11 10 11 11
5 5 10 6 5 7 6 5 8 5 3 1 1 4 6 7 6 7 5 5 4 4 4 5 6 6 6 4 6 6 6 5 5 6 7 5 5 5 6 7 11 12 13 13 15 13 11 8 3
2 5 5 2 2 5 7 5 3 9 3 5 6 10 7 5 5 6 4 3 5 3 3 5 5 5 6 5 4 3 3 3 4 6 5 5 4 4 4 4 4 4 8 4 6 6 4 5 4
8 5 1 3 2 5 7 7 5 1 1 4 8 7 6 7 7 6 5 4 4 3 2 3 4 5 5 3 3 3 4 3 4 4 6 4 3 4 4 3 4 4 3 5 4 3 5 6 6
6 2 4 4 5 6 7 5 5 3 4 6 9 7 8 7 5 3 4 3 4 3 2 2 2 3 3 4 3 3 4 3 4 4 5 4 4 4 4 4 3 3 3 3 4 4 4 5 6
5 6 3 7 5 5 7 3 2 1 5 6 8 8 7 7 7 4 5 5 4 3 2 1 1 1 3 3 3 3 3 3 3 3 4 5 3 3 3 4 3 3 3 4 3 4 4 4 4
6 7 3 8 7 3 1 4 2 3 5 7 6 6 5 6 5 8 6 6 5 3 1 1 2 0 3 3 3 3 3 3 3 4 5 5 4 4 4 3 3 3 4 5 4 4 3 4 3
6 7 4 5 7 4 3 5 3 4 8 8 6 4 5 5 7 7 4 5 5 3 3 2 2 2 3 3 2 3 3 3 3 4 4 5 5 4 3 3 3 4 4 3 3 3 3 3 4
9 6 3 0 4 3 4 3 2 4 5 6 6 7 6 7 7 6 6 6 6 5 3 3 2 3 3 3 3 3 3 3 3 3 4 5 4 5 3 3 4 4 3 3 2 2 1 3 4
5 8 3 1 5 4 3 2 2 4 6 8 7 7 7 8 11 6 6 6 6 5 4 3 2 3 2 2 2 2 2 2 2 4 3 5 4 5 4 4 4 3 3 3 3 2 2 2 3
8 7 6 3 5 2 3 4 7 3 3 7 8 8 8 9 5 5 5 6 5 3 3 4 2 3 0 1 2 1 2 2 2 3 5 5 5 5 4 3 4 3 3 3 3 3 3 2 2
7 11 3 1 5 1 5 8 7 3 5 6 6 8 9 7 5 5 3 5 5 3 5 4 4 3 2 1 1 2 1 2 3 3 5 4 5 5 4 4 4 4 3 4 4 2 3 2 3
6 8 4 4 1 4 4 8 4 3 2 3 2 5 5 7 8 6 5 5 4 5 6 5 4 4 3 2 0 1 1 1 2 3 3 3 5 5 5 4 3 4 2 3 3 3 3 2 3
5 1 2 5 5 3 5 5 4 5 5 4 7 6 6 6 4 4 4 5 6 7 5 5 5 4 4 2 1 2 2 2 2 3 3 4 3 4 5 5 4 4 2 3 2 2 2 0 3
5 3 4 3 6 5 10 6 8 4 4 4 7 7 6 5 4 4 5 6 5 5 6 5 5 5 4 3 3 3 3 3 2 3 6 3 3 3 4 4 5 4 3 4 4 2 2 1 2
6 5 7 5 4 5 4 4 8 0 1 5 5 7 7 7 6 5 3 3 5 5 5 4 5 6 5 5 5 5 5 5 4 4 4 3 3 3 3 4 4 4 4 4 3 2 3 3 3
6 6 5 6 7 6 2 4 10 3 3 2 5 7 7 7 6 6 6 5 5 7 7 6 6 8 6 6 6 6 6 6 6 5 4 4 3 3 4 3 4 4 4 4 3 2 3 3 3
3 5 7 7 4 5 2 5 7 5 4 2 4 6 7 8 7 7 7 7 7 8 7 6 7 8 6 7 7 6 6 4 4 5 4 4 3 4 3 5 5 4 5 4 4 1 1 2 3
2 4 3 9 4 5 3 8 7 2 3 4 6 7 7 7 7 8 9 8 8 7 7 5 6 7 7 7 6 6 6 6 6 6 5 4 4 4 4 4 6 6 5 4 5 2 2 2 3
3 5 5 5 3 3 5 6 7 2 2 4 6 7 9 8 9 8 7 8 7 7 6 7 6 7 6 7 6 6 6 6 6 5 6 6 5 5 5 5 5 5 5 5 5 4 2 2 3
2 2 5 5 3 6 1 8 7 7 5 4 1 5 7 8 8 7 8 8 7 6 7 8 7 7 7 6 6 6 6 6 6 5 6 6 4 5 5 5 5 5 5 5 5 5 4 4 4
1 3 3 6 5 2 4 10 1 5 3 3 7 8 6 7 8 8 7 7 7 7 7 7 6 6 6 6 6 7 6 6 6 6 6 5 5 5 5 5 4 4 5 4 5 5 5 5 4
Wind_Direction
289 339 28 38 63 65 267 262 297 136 278 319 2 114 141 29 120 184 227 50 145 148 159 152 128 119 104 93 91 93 88 76 61 42 25 14 83 21 24 99 105 84 78 68 72 56 54 58 59
11 276 38 81 95 101 265 256 220 175 139 128 69 21 38 80 100 116 120 358 128 146 150 142 136 127 125 109 100 90 89 77 47 27 15 13 25 25 8 160 137 117 111 100 89 78 63 56 45
23 26 94 108 118 170 206 220 173 102 142 17 97 49 68 106 90 120 255 270 124 125 142 149 150 144 139 127 116 108 84 66 31 25 16 9 11 13 357 295 202 161 152 157 156 154 145 350 336
153 14 33 97 177 227 192 210 119 111 120 71 118 72 47 316 81 350 317 114 106 102 119 139 151 142 115 106 50 25 0 331 10 15 12 9 8 6 360 342 263 188 189 208 221 223 230 249 276
33 53 77 103 197 215 226 149 126 118 98 55 308 159 69 26 30 330 84 110 107 86 82 77 77 72 63 55 45 33 28 20 5 352 351 358 0 360 355 353 317 225 236 242 250 254 257 258 268
50 105 100 169 204 166 74 143 117 75 76 148 80 92 130 55 82 47 101 96 89 93 72 58 50 48 48 50 44 37 35 29 19 9 8 6 357 346 343 341 331 294 256 259 265 266 265 262 263
133 94 173 156 165 125 143 119 118 115 97 340 145 94 50 236 159 124 91 83 78 72 73 57 48 43 46 46 44 36 30 28 27 20 14 6 352 344 338 332 322 313 296 283 271 267 269 265 262
118 90 126 182 165 171 153 92 107 115 134 118 182 169 176 183 137 106 77 79 70 62 63 50 51 43 41 36 36 39 34 30 29 26 18 13 10 6 359 352 337 321 318 300 280 268 268 264 261
118 75 173 182 158 164 177 120 48 81 115 84 346 152 160 116 112 102 89 70 62 54 51 46 46 41 28 47 26 29 25 23 22 21 18 16 10 1 356 351 355 2 358 355 347 338 326 284 261
92 113 207 188 168 152 153 119 139 140 134 50 42 48 96 113 131 138 132 119 95 67 49 41 41 32 24 33 22 22 19 15 15 11 11 10 8 360 3 359 1 356 356 351 358 358 357 355 304
104 150 184 228 188 122 129 101 117 132 200 208 190 150 129 125 135 140 136 127 126 111 71 41 34 31 32 22 17 16 18 9 3 6 6 0 0 355 358 353 354 349 357 354 352 348 351 341 335
89 31 338 203 195 120 131 122 92 69 132 289 133 135 125 149 164 169 157 140 125 125 111 60 30 26 30 27 23 13 16 6 1 354 358 3 353 350 350 352 348 356 347 347 348 341 329 333 325
82 124 33 12 86 68 101 80 138 40 349 116 118 131 153 158 163 164 168 160 150 170 146 49 28 37 24 29 12 14 7 6 348 1 358 9 4 354 345 350 356 353 348 352 346 343 337 332 330
120 92 69 29 16 42 109 105 115 98 114 121 142 163 170 171 176 157 184 201 194 184 179 85 1 30 22 19 12 3 0 351 7 6 357 5 9 352 348 337 335 334 341 329 323 314 319 317 327
131 84 52 18 344 48 322 74 194 136 132 148 183 166 190 204 186 210 201 201 200 204 191 263 271 28 14 2 358 4 357 8 4 346 345 345 348 332 327 322 327 328 329 327 332 332 330 327 319
74 60 99 333 348 317 88 247 177 174 151 188 203 210 236 242 224 238 227 216 199 193 216 278 322 352 343 349 353 354 358 359 349 343 338 335 331 340 334 334 321 323 329 333 332 320 322 322 320
24 127 94 344 38 312 69 211 112 166 189 212 222 237 251 273 276 259 240 217 204 199 205 246 282 303 322 339 349 347 348 4 339 335 331 329 326 331 322 307 302 324 334 349 333 312 303 311 317
152 104 51 93 341 2 41 268 301 171 189 229 244 255 260 260 254 258 248 213 200 199 201 232 270 288 319 328 327 349 350 344 334 331 318 323 311 312 322 308 309 316 328 338 340 307 308 274 300
112 100 107 321 329 347 352 288 269 258 211 244 248 253 258 261 280 261 259 212 198 207 211 228 251 275 189 19 351 4 309 308 314 326 323 319 323 323 324 310 312 319 319 310 309 305 338 307 313
79 112 86 309 352 72 7 280 258 235 237 224 249 264 259 265 282 284 266 199 196 199 228 244 238 262 230 178 212 211 242 278 273 301 309 323 332 334 326 330 321 319 318 328 331 346 316 294 356
41 112 159 156 65 65 336 309 331 48 359 338 334 281 284 273 282 268 243 215 214 233 236 243 245 243 239 205 216 324 287 306 333 319 314 322 328 337 333 319 316 321 307 305 301 301 348 322 310
89 335 89 103 81 171 11 259 310 344 345 37 354 350 337 333 292 263 238 221 222 243 248 258 254 243 242 201 206 219 215 268 243 256 264 294 321 329 333 331 332 318 302 318 312 291 302 326 294
147 84 83 78 87 81 352 75 267 326 53 15 6 2 344 331 341 306 240 235 250 260 255 258 259 251 251 232 221 224 249 236 262 283 285 292 293 300 335 329 322 330 338 317 291 295 309 235 265
145 73 49 56 82 39 309 94 290 325 5 313 329 337 342 346 347 344 327 280 272 274 270 261 252 257 247 233 229 228 249 257 267 281 288 287 298 313 323 318 324 327 322 310 300 1 313 281 258
65 58 8 5 12 215 274 47 238 273 298 270 316 338 347 347 346 330 314 300 289 285 278 262 244 262 242 238 241 238 242 238 246 254 263 283 289 282 298 311 305 305 309 307 342 20 351 332 298
80 133 148 182 179 256 355 243 257 208 318 331 356 347 353 346 334 310 293 286 280 279 274 272 263 265 243 238 245 247 245 228 234 244 255 270 269 290 318 301 297 298 303 314 308 315 352 359 327
244 54 164 104 45 45 260 287 313 304 107 37 36 36 8 345 311 291 291 282 279 278 285 282 282 267 255 242 241 242 243 238 238 243 251 259 276 272 273 289 293 297 295 300 293 313 329 338 312
100 153 65 1 105 288 295 276 239 307 84 54 38 15 347 338 333 318 297 292 287 274 280 295 282 268 263 239 229 235 230 235 243 245 246 249 263 266 271 274 279 292 301 311 301 295 270 282 313
31 30 51 110 101 159 249 269 211 210 203 122 39 335 303 298 297 311 314 309 296 298 299 291 284 275 266 245 241 240 243 235 231 235 249 251 253 256 256 259 273 284 299 302 302 303 300 292 297
166 183 149 120 221 65 141 274 277 231 257 260 275 287 303 336 328 313 304 309 323 316 310 301 295 276 264 254 248 244 243 236 237 238 237 235 244 251 248 256 266 280 286 295 296 298 307 296 293